Regional Weather Roundup
Issued by NWS

Home | Current Version | Previous Version | Graphics & Text | Print | Product List | Glossary Off
Versions: 1 2 3 4 5 6 7 8 9 10 11 12 13 14 15 16 17 18 19 20 21 22 23 24 25 26 27 28 29 30 31 32 33 34 35 36 37 38 39 40 41 42 43 44 45 46 47 48 49 50

000
ASUS43 KLSX 300610
RWRMO

WEATHER SUMMARY FOR MISSOURI
NATIONAL WEATHER SERVICE SPRINGFIELD MO
100 AM CDT FRI SEP 30 2016

NOTE: "FAIR" INDICATES FEW OR NO CLOUDS BELOW 12,000 FEET WITH NO
       SIGNIFICANT WEATHER AND/OR OBSTRUCTIONS TO VISIBILITY.
       CURRENT SKY AND/OR WEATHER CONDITIONS ARE NOT AVAILABLE FOR
       CHILLICOTHE AND FARMINGTON.

MOZ001>031-035>038-043-044-053-054-300700-
...NORTHERN AND WESTERN MISSOURI...

CITY           SKY/WX    TMP DP  RH WIND       PRES   REMARKS
KANSAS CTY INT PTCLDY    54  47  77 N6        30.28F
6HR MIN TEMP:  54; 6HR MAX TEMP:  63;

KANSAS C DTWN  CLEAR     57  50  77 CALM      30.27F
6HR MIN TEMP:  57; 6HR MAX TEMP:  68;

LEE`S SUMMIT   CLEAR     55  50  83 W5        30.27F
6HR MIN TEMP:  53; 6HR MAX TEMP:  66;

ST JOSEPH      CLEAR     50  48  93 NW3       30.29F
6HR MIN TEMP:  49; 6HR MAX TEMP:  64;

CHILLICOTHE      N/A     58  50  75 N5        30.27F
6HR MIN TEMP:  57; 6HR MAX TEMP:  65;

KIRKSVILLE     CLEAR     54  47  77 N6        30.25F
6HR MIN TEMP:  54; 6HR MAX TEMP:  66;


$$
MOZ066>068-077>081-088>096-101>105-300700-
...SOUTHWEST MISSOURI...

CITY           SKY/WX    TMP DP  RH WIND       PRES   REMARKS
SPRINGFIELD    CLEAR     53  47  79 NW6       30.22F
6HR MIN TEMP:  53; 6HR MAX TEMP:  64;

JOPLIN         CLEAR     51  49  92 CALM      30.26F
6HR MIN TEMP:  50; 6HR MAX TEMP:  65;

BRANSON        CLEAR     57  48  72 CALM      30.22F

$$
MOZ032>034-039>042-045>050-055>058-069>072-300700-
...CENTRAL MISSOURI...

CITY           SKY/WX    TMP DP  RH WIND       PRES   REMARKS
COLUMBIA       MOCLDY    60  52  74 N8        30.20F
6HR MIN TEMP:  60; 6HR MAX TEMP:  68;

JEFFERSON CITY CLOUDY    63  53  70 NW3       30.19F
6HR MIN TEMP:  63; 6HR MAX TEMP:  70;

ROLLA          CLOUDY    60  54  80 NW3       30.18F
6HR MIN TEMP:  60; 6HR MAX TEMP:  65;

SEDALIA        CLEAR     56  50  80 NW7       30.24F
6HR MIN TEMP:  56; 6HR MAX TEMP:  67;

WHITEMAN AFB   CLEAR     56  53  89 NW9       30.23F
OSAGE BEACH    CLOUDY    60  51  72 N6        30.21F

$$
MOZ051-052-059>065-300700-
...EAST CENTRAL MISSOURI...

CITY           SKY/WX    TMP DP  RH WIND       PRES   REMARKS
ST LOUIS INTL  MOCLDY    62  57  83 N10       30.15F
6HR MIN TEMP:  62; 6HR MAX TEMP:  64; 6HR PCP: TRACE;

SPIRIT OF STL  CLOUDY    63  58  83 N7        30.15F
6HR MIN TEMP:  63; 6HR MAX TEMP:  65; 6HR PCP: TRACE;

ST CHARLES     MOCLDY    61  59  93 N10       30.15F
6HR MIN TEMP:  61; 6HR MAX TEMP:  63; 6HR PCP: TRACE;


$$
MOZ072>076-082>087-097>100-106>115-300700-
...SOUTH CENTRAL AND SOUTHEAST MISSOURI...

CITY           SKY/WX    TMP DP  RH WIND       PRES   REMARKS
CAPE GIRARDEAU MOCLDY    58  56  93 NW5       30.11F FOG
6HR MIN TEMP:  55; 6HR MAX TEMP:  59;

FARMINGTON     CLOUDY    60  57  89 N5        30.15F
6HR MIN TEMP:  59; 6HR MAX TEMP:  62; 6HR PCP: TRACE;

POPLAR BLUFF   PTCLDY    61  57  87 N9        30.12F
6HR MIN TEMP:  61; 6HR MAX TEMP:  64; 6HR PCP: TRACE;

WEST PLAINS    CLEAR     59  50  72 N8        30.19F
6HR MIN TEMP:  58; 6HR MAX TEMP:  65;


$$




USA.gov is the U.S. government's official web portal to all federal, state and local government web resources and services.